This is the latest recevied weather packets stored in our database for station/object CT1EDG-13. If no packets are shown the sender has not sent any weather packets the latest 10 day(s).
| Time | Temp. | Humidity | Pressure | Rain* | Wind** | Luminosity | Snow |
|---|---|---|---|---|---|---|---|
| 1788579831 | 23.89° C | 85% | 1007.5 hPa | 0 mm | - | - | - |
| 1788579232 | 24.44° C | 84% | 1007.4 hPa | 0 mm | - | - | - |
| 1788579231 | 24.44° C | 84% | 1007.4 hPa | 0 mm | - | - | - |
| 1788578633 | 25° C | 79% | 1007.4 hPa | 0 mm | - | - | - |
| 1788578631 | 25° C | 79% | 1007.4 hPa | 0 mm | - | - | - |
| 1788578032 | 25° C | 80% | 1007.4 hPa | 0 mm | - | - | - |
| 1788578031 | 25° C | 80% | 1007.4 hPa | 0 mm | - | - | - |
| 1788577431 | 25.56° C | 78% | 1007.4 hPa | 0 mm | - | - | - |
| 1788576833 | 24.44° C | 82% | 1007.5 hPa | 0 mm | - | - | - |
| 1788576831 | 24.44° C | 82% | 1007.5 hPa | 0 mm | - | - | - |
| 1788576233 | 23.89° C | 82% | 1007.5 hPa | 0 mm | - | - | - |
| 1788576231 | 23.89° C | 82% | 1007.5 hPa | 0 mm | - | - | - |
| 1788575633 | 23.89° C | 84% | 1007.9 hPa | 0 mm | - | - | - |
| 1788575631 | 23.89° C | 84% | 1007.9 hPa | 0 mm | - | - | - |
| 1788575032 | 23.33° C | 84% | 1007.9 hPa | 0 mm | - | - | - |
| 1788575031 | 23.33° C | 84% | 1007.9 hPa | 0 mm | - | - | - |
| 1788574432 | 24.44° C | 81% | 1007.9 hPa | 0 mm | - | - | - |
| 1788574431 | 24.44° C | 81% | 1007.9 hPa | 0 mm | - | - | - |
| 1788573833 | 23.89° C | 83% | 1007.9 hPa | 0 mm | - | - | - |
| 1788573831 | 23.89° C | 83% | 1007.9 hPa | 0 mm | - | - | - |
| 1788573232 | 23.89° C | 83% | 1008 hPa | 0 mm | - | - | - |
| 1788573231 | 23.89° C | 83% | 1008 hPa | 0 mm | - | - | - |
| 1788572632 | 25° C | 80% | 1007.9 hPa | 0 mm | - | - | - |
| 1788572631 | 25° C | 80% | 1007.9 hPa | 0 mm | - | - | - |
| 1788572032 | 24.44° C | 82% | 1008.1 hPa | 0 mm | - | - | - |
* Rain latest hour (hover to see other rain measurements)
** Current wind speed in m/s (hover to see current wind gust speed)